Current weather by "City, St" or "zip code"  
 
Advertise Here

Current Conditions: Tahlequah, Tahlequah Municipal Airport, OK

Overcast


32.0 F

Last Updated on Jan 27 2021, 12:55 pm CST
Humidity: 80%
Wind Speed: NW 12.7 mph
Barometer 30.39 in
Dewpoint: 26.6 F
Visibility: 10.00 mi
Precip: --
Heat Index: NA
Wind Chill: 22 F
Current conditions at:

Tahlequah, Tahlequah Municipal Airport, OK (KTQH)

Lat: 35.92889 Lon: 95.00444

Local Radar Image active severe weather and emergency alerts image image weather storm and storm spotter reports image weather observation monitoring service image
Local
Radar
Active
Alerts
Storm Reports Obs
Monitoring

Sign-up For Email & Text Message Weather Alert Notification Services


Advertise Here

Observation History for Tahlequah, Tahlequah Municipal Airport, OK


Time Wind
(mph)
Vis
(mi)
Weather Precip (in) Temperature (F) Relative
Humidity
Wind
Chill
(F)
Heat
Index
(F)
Pressure
Air Dwpt altimeter
(in)
sea level
(mb)
Rmks
12:55 pm CST NW 12.7 10.00 Overcast -- 32.0 26.6 80% 22 NA 30.39 M
11:55 am CST NW 9.2 10.00 Overcast -- 32.0 26.6 80% 24 NA 30.39 M
10:55 am CST N 8.1 10.00 Overcast -- 32.0 26.6 80% 25 NA 30.36 M
9:55 am CST N 11.5 G 18.4 10.00 Overcast -- 32.0 28.4 87% 23 NA 30.33 M
8:55 am CST N 10.4 10.00 Overcast -- 30.0 28.4 93% 21 NA 30.28 M
7:55 am CST N 11.5 7.00 Overcast -- 30.0 28.4 93% 20 NA 30.24 M
6:55 am CST NW 10.4 7.00 Overcast -- 32.0 30.2 93% 24 NA 30.21 M
5:55 am CST NW 9.2 7.00 Overcast -- 32.0 30.2 93% 24 NA 30.16 M
4:55 am CST N 5.8 7.00 Overcast -- 32.0 30.2 93% 26 NA 30.15 M
3:55 am CST NW 5.8 7.00 Overcast -- 32.0 32.0 100% 26 NA 30.12 M
2:55 am CST NW 4.6 7.00 Overcast -- 32.0 32.0 100% 27 NA 30.14 M
1:55 am CST N 3.5 7.00 Overcast -- 32.0 32.0 100% NA NA 30.11 M
12:55 am CST N 0.0 7.00 Overcast -- 34.0 32.0 93% NA NA 30.12 M
11:55 pm CST NW 4.6 7.00 Overcast -- 34.0 32.0 93% 30 NA 30.12 M
10:55 pm CST NW 6.9 7.00 Mostly Cloudy -- 32.0 32.0 100% 26 NA 30.09 M
9:55 pm CST N 0.0 7.00 Fair -- 32.0 30.2 93% NA NA 30.05 M
8:55 pm CST N 6.9 7.00 Mostly Cloudy -- 32.0 30.2 93% 26 NA 30.06 M
7:55 pm CST N 6.9 10.00 Overcast -- 34.0 32.0 93% 28 NA 30.05 M
6:55 pm CST NE 4.6 10.00 Overcast -- 34.0 32.0 93% 30 NA 30.02 M
5:55 pm CST NE 5.8 10.00 Overcast -- 34.0 30.2 87% 29 NA 30.01 M
4:55 pm CST NE 8.1 10.00 Overcast -- 36.0 30.2 81% 30 NA 30.00 M
3:55 pm CST N 6.9 10.00 Overcast -- 36.0 30.2 81% 30 NA 30.01 M
2:55 pm CST NE 9.2 10.00 Overcast -- 36.0 30.2 81% 29 NA 30.01 M
1:55 pm CST N 5.8 10.00 Overcast -- 36.0 30.2 81% 31 NA 30.02 M

Regional Weather Observation


Claremore, Claremore Regional Airport, OK (KGCM)

Overcast
32.0 F

Tahlequah, Tahlequah Municipal Airport, OK (KTQH)

Overcast
32.0 F

Tulsa, Tulsa International Airport, OK (KTUL)

Overcast
33.0 F

Tulsa - Jones Jr. Airport, OK (KRVS)

Overcast
34.0 F

Muskogee-Davis Regional Airport, OK (KMKO)

Overcast
34.0 F

Siloam Springs, Smith Field Airport, AR (KSLG)

Overcast
30.0 F